Weather History for Peru, IN

Change the Weather History Date:

Thursday, December 20, 2012

  Actual Average Record
Temperature  
Mean Temperature 42 °F -  
Max Temperature 51 °F 31 °F 55 °F (2013)
Min Temperature 32 °F 20 °F -5 °F (2000)
Degree Days  
Heating Degree Days 24    
Moisture  
Dew Point 39 °F    
Average Humidity 95    
Maximum Humidity 100    
Minimum Humidity 75    
Precipitation  
Precipitation 1.21 in - - ()
Sea Level Pressure  
Sea Level Pressure 29.43 in    
Wind  
Wind Speed 18 mph (SE)    
Max Wind Speed 32 mph    
Max Gust Speed 43 mph    
Visibility 6 miles    
Events Rain , Snow , Thunderstorm    
Averages and records for this station are not official NWS values.
T = Trace of Precipitation, MM = Missing Value Source: NWS Daily Summary

Daily Weather History Graph

Daily Weather History Graph

Search for Another Location

Airport:

Trip Planner

Search our weather history database for the weather conditions in past years. The results will help you decide how hot, cold, wet, or windy it might be!

Date:

Astronomy

Dec. 20, 2012 Rise Set
Actual Time 8:04 AM EST 5:20 PM EST
Civil Twilight 7:33 AM EST 5:51 PM EST
Nautical Twilight 6:59 AM EST 6:25 PM EST
Astronomical Twilight 6:25 AM EST 6:59 PM EST
Moon 12:39 PM EST (12/20) 12:49 AM EST (12/20)
Length of Visible Light 10h 17m
Length of Day
9h 15m
First Quarter, 55% of the Moon is Illuminated
Dec 20
First Quarter
Dec 28
Full
Jan 4
Last Quarter
Jan 11
New
Jan 18
First Quarter

Hourly Weather History & Observations

Time (EST) Temp. Windchill Dew Point Humidity Pressure Visibility Wind Dir Wind Speed Gust Speed Precip Events Conditions
12:28 AM 41.0 °F 32.8 °F 39.2 °F 93% 29.88 in 4.0 mi East 16.1 mph 21.9 mph N/A Rain Light Rain
12:34 AM 41.0 °F 32.8 °F 39.2 °F 93% 29.88 in 2.5 mi East 16.1 mph - N/A Rain Heavy Rain
12:36 AM 41.0 °F 32.8 °F 39.2 °F 93% 29.88 in 2.0 mi East 16.1 mph - N/A Rain Heavy Rain
12:43 AM 41.0 °F 33.1 °F 39.2 °F 93% 29.87 in 2.5 mi East 15.0 mph - N/A Rain Rain
12:45 AM 41.0 °F 32.8 °F 39.2 °F 93% 29.87 in 3.0 mi East 16.1 mph 24.2 mph N/A Rain Light Rain
12:48 AM 41.0 °F 33.1 °F 39.2 °F 93% 29.86 in 5.0 mi ENE 15.0 mph 24.2 mph N/A Rain Light Rain
12:54 AM 41.0 °F 32.2 °F 39.2 °F 93% 29.85 in 8.0 mi East 18.4 mph 24.2 mph N/A   Overcast
12:55 AM 40.5 °F 31.5 °F 39.2 °F 95% 29.85 in 8.0 mi East 18.4 mph - 0.14 in   Overcast
1:55 AM 41.0 °F 31.6 °F 38.8 °F 92% 29.78 in 9.0 mi East 20.7 mph 28.8 mph N/A   Overcast
2:37 AM 41.0 °F 31.9 °F 39.2 °F 93% 29.76 in 10.0 mi ESE 19.6 mph 26.5 mph N/A   Light Drizzle
2:55 AM 41.2 °F 32.1 °F 39.4 °F 93% 29.75 in 6.0 mi East 19.6 mph - 0.01 in Rain Light Rain
3:38 AM 41.0 °F 31.6 °F 39.2 °F 93% 29.72 in 10.0 mi East 20.7 mph 25.3 mph N/A   Overcast
3:40 AM 41.0 °F 32.2 °F 39.2 °F 93% 29.71 in 10.0 mi East 18.4 mph - N/A   Light Drizzle
3:51 AM 41.0 °F 31.9 °F 39.2 °F 93% 29.70 in 10.0 mi ESE 19.6 mph - N/A   Mostly Cloudy
3:54 AM 41.0 °F 31.4 °F 39.2 °F 93% 29.69 in 10.0 mi ESE 21.9 mph 27.6 mph N/A Rain Light Rain
3:55 AM 41.7 °F 32.3 °F 39.9 °F 93% 29.69 in 10.0 mi ESE 21.9 mph 27.6 mph 0.02 in Rain Light Rain
4:16 AM 42.8 °F 34.3 °F 39.2 °F 87% 29.69 in 10.0 mi ESE 19.6 mph 26.5 mph N/A   Mostly Cloudy
4:21 AM 42.8 °F 34.8 °F 39.2 °F 87% 29.69 in 10.0 mi ESE 17.3 mph 26.5 mph N/A Rain Light Rain
4:55 AM 41.7 °F 33.7 °F 40.1 °F 94% 29.68 in 7.0 mi East 16.1 mph - 0.02 in Rain Light Rain
5:30 AM 41.0 °F 32.8 °F 41.0 °F 100% 29.65 in 4.0 mi East 16.1 mph - N/A Rain Light Rain
5:32 AM 41.0 °F 33.1 °F 41.0 °F 100% 29.64 in 4.0 mi East 15.0 mph - N/A Rain , Thunderstorm Light Thunderstorms and Rain
5:47 AM 41.0 °F 32.5 °F 41.0 °F 100% 29.60 in 4.0 mi East 17.3 mph - N/A Rain Rain
5:55 AM 41.2 °F 33.0 °F 40.5 °F 97% 29.59 in 4.0 mi East 16.1 mph - 0.13 in Rain Light Rain
5:56 AM 41.0 °F 32.8 °F 41.0 °F 100% 29.59 in 5.0 mi East 16.1 mph - N/A Rain Light Rain
6:00 AM 41.0 °F 33.9 °F 41.0 °F 100% 29.60 in 6.0 mi East 12.7 mph - N/A Rain , Thunderstorm Light Thunderstorms and Rain
6:08 AM 41.0 °F 32.8 °F 41.0 °F 100% 29.59 in 4.0 mi East 16.1 mph - N/A Rain , Thunderstorm Thunderstorms and Rain
6:10 AM 41.0 °F 32.5 °F 41.0 °F 100% 29.58 in 3.0 mi East 17.3 mph - N/A Rain , Thunderstorm Thunderstorms and Rain
6:14 AM 41.0 °F 33.1 °F 41.0 °F 100% 29.58 in 2.5 mi East 15.0 mph - N/A Rain , Thunderstorm Thunderstorms and Rain
6:18 AM 41.0 °F 33.5 °F 41.0 °F 100% 29.58 in 3.0 mi East 13.8 mph - N/A Rain , Thunderstorm Thunderstorms and Rain
6:22 AM 41.0 °F 32.5 °F 41.0 °F 100% 29.57 in 5.0 mi East 17.3 mph - N/A Rain , Thunderstorm Light Thunderstorms and Rain
6:33 AM 41.0 °F 34.3 °F 41.0 °F 100% 29.60 in 6.0 mi ENE 11.5 mph - N/A Rain Light Rain
6:35 AM 41.0 °F 34.3 °F 41.0 °F 100% 29.61 in 6.0 mi ENE 11.5 mph - N/A Rain , Thunderstorm Light Thunderstorms and Rain
6:40 AM 41.0 °F 32.5 °F 41.0 °F 100% 29.59 in 4.0 mi East 17.3 mph - N/A Rain , Thunderstorm Thunderstorms and Rain
6:43 AM 41.0 °F 32.2 °F 41.0 °F 100% 29.57 in 2.5 mi East 18.4 mph - N/A Rain , Thunderstorm Heavy Thunderstorms and Rain
6:46 AM 41.0 °F 32.2 °F 41.0 °F 100% 29.56 in 2.0 mi East 18.4 mph - N/A Rain , Thunderstorm Heavy Thunderstorms and Rain
6:52 AM 41.0 °F 32.2 °F 41.0 °F 100% 29.55 in 2.5 mi East 18.4 mph - N/A Rain , Thunderstorm Thunderstorms and Rain
6:55 AM 41.2 °F 32.1 °F 40.6 °F 98% 29.55 in 3.0 mi East 19.6 mph - 0.20 in Rain , Thunderstorm Thunderstorms and Rain
7:12 AM 41.0 °F 31.4 °F 41.0 °F 100% 29.49 in 2.5 mi East 21.9 mph - N/A Rain Rain
7:15 AM 41.0 °F 31.4 °F 41.0 °F 100% 29.49 in 3.0 mi East 21.9 mph - N/A Rain Rain
7:23 AM 41.0 °F 32.2 °F 41.0 °F 100% 29.51 in 5.0 mi East 18.4 mph 24.2 mph N/A Rain Light Rain
7:39 AM 41.0 °F 33.1 °F 41.0 °F 100% 29.50 in 5.0 mi East 15.0 mph 24.2 mph N/A Rain Light Rain
7:47 AM 41.0 °F 31.9 °F 41.0 °F 100% 29.49 in 4.0 mi ENE 19.6 mph - N/A Rain Light Rain
7:55 AM 41.4 °F 33.0 °F 40.6 °F 97% 29.49 in 4.0 mi East 17.3 mph 24.2 mph 0.13 in Rain Rain
8:05 AM 41.0 °F 34.7 °F 41.0 °F 100% 29.52 in 2.5 mi East 10.4 mph 20.7 mph N/A Rain Rain
8:09 AM 41.0 °F 34.3 °F 41.0 °F 100% 29.52 in 2.0 mi East 11.5 mph 20.7 mph N/A Rain Heavy Rain
8:18 AM 41.0 °F 34.3 °F 41.0 °F 100% 29.52 in 3.0 mi East 11.5 mph - N/A Rain Light Rain
8:28 AM 41.0 °F 34.7 °F 41.0 °F 100% 29.51 in 4.0 mi East 10.4 mph - N/A Rain Light Rain
8:40 AM 42.8 °F 36.2 °F 41.0 °F 93% 29.50 in 3.0 mi East 12.7 mph - N/A Rain Light Rain
8:55 AM 41.9 °F 35.4 °F 41.7 °F 99% 29.50 in 3.0 mi East 11.5 mph - 0.12 in Rain Light Rain
9:11 AM 42.8 °F 37.0 °F 42.8 °F 100% 29.48 in 3.0 mi East 10.4 mph - N/A Rain Light Rain
9:27 AM 42.8 °F 35.8 °F 42.8 °F 100% 29.45 in 4.0 mi East 13.8 mph - N/A Rain Light Rain
9:51 AM 42.8 °F 34.8 °F 42.8 °F 100% 29.39 in 6.0 mi East 17.3 mph 27.6 mph N/A   Overcast
9:55 AM 43.2 °F 35.3 °F 43.2 °F 100% 29.37 in 7.0 mi East 17.3 mph 27.6 mph 0.33 in   Overcast
10:14 AM 44.6 °F 36.6 °F 44.6 °F 100% 29.39 in 10.0 mi ESE 19.6 mph 25.3 mph N/A Rain Light Rain
10:27 AM 46.4 °F 37.7 °F 46.4 °F 100% 29.34 in 10.0 mi ESE 26.5 mph 32.2 mph N/A   Overcast
10:30 AM 46.4 °F 38.5 °F 46.4 °F 100% 29.33 in 10.0 mi ESE 21.9 mph 32.2 mph N/A   Overcast
10:35 AM 46.4 °F 38.1 °F 46.4 °F 100% 29.32 in 10.0 mi SE 24.2 mph 33.4 mph N/A   Overcast
10:52 AM 48.2 °F - 48.2 °F 100% 29.28 in 10.0 mi ESE 32.2 mph 41.4 mph N/A   Mostly Cloudy
10:55 AM 48.6 °F - 48.0 °F 98% 29.25 in 10.0 mi ESE 32.2 mph 41.4 mph 0.01 in   Mostly Cloudy
11:55 AM 50.4 °F - 49.1 °F 95% 29.25 in 10.0 mi SSE 21.9 mph 31.1 mph N/A   Overcast
12:55 PM 51.6 °F - 49.5 °F 92% 29.20 in 10.0 mi SSE 19.6 mph 28.8 mph N/A   Overcast
1:55 PM 51.6 °F - 49.3 °F 92% 29.15 in 6.0 mi SSE 15.0 mph 26.5 mph N/A Rain Light Rain
2:25 PM 51.8 °F - 50.0 °F 94% 29.13 in 6.0 mi South 25.3 mph 31.1 mph N/A Rain Light Rain
2:31 PM 51.8 °F - 48.2 °F 88% 29.15 in 2.5 mi SW 25.3 mph 35.7 mph N/A Rain Light Rain
2:46 PM 46.4 °F 39.0 °F 44.6 °F 93% 29.16 in 8.0 mi SSW 19.6 mph 27.6 mph N/A Rain Light Rain
2:47 PM 46.4 °F 39.0 °F 44.6 °F 93% 29.16 in 8.0 mi SW 19.6 mph 27.6 mph N/A   Overcast
2:55 PM 46.8 °F - 45.1 °F 94% 29.16 in 10.0 mi SW 17.3 mph 23.0 mph 0.04 in   Overcast
2:58 PM 46.4 °F 39.5 °F 44.6 °F 93% 29.16 in 10.0 mi SW 17.3 mph 23.0 mph N/A   Overcast
3:00 PM 46.4 °F 40.1 °F 44.6 °F 93% 29.15 in 10.0 mi SW 15.0 mph 23.0 mph N/A   Overcast
3:55 PM 45.5 °F 36.7 °F 39.2 °F 79% 29.16 in 10.0 mi SW 25.3 mph 42.6 mph 0.02 in   Overcast
3:56 PM 44.6 °F 35.7 °F 39.2 °F 81% 29.16 in 10.0 mi SW 24.2 mph 40.3 mph N/A Rain Light Rain
4:19 PM 42.8 °F 33.3 °F 37.4 °F 81% 29.18 in 10.0 mi SSW 24.2 mph 31.1 mph N/A   Overcast
4:55 PM 41.0 °F 30.9 °F 34.7 °F 78% 29.20 in 10.0 mi SSW 24.2 mph 33.4 mph 0.01 in   Overcast
5:02 PM 41.0 °F 31.6 °F 33.8 °F 76% 29.20 in 10.0 mi SSW 20.7 mph 34.5 mph N/A   Overcast
5:08 PM 41.0 °F 30.5 °F 33.8 °F 76% 29.20 in 10.0 mi South 26.5 mph 34.5 mph N/A   Overcast
5:15 PM 39.2 °F 29.6 °F 32.0 °F 75% 29.20 in 10.0 mi South 19.6 mph 34.5 mph N/A   Overcast
5:55 PM 38.3 °F 27.6 °F 31.8 °F 77% 29.22 in 10.0 mi South 23.0 mph 32.2 mph N/A   Overcast
6:24 PM 37.4 °F 26.4 °F 32.0 °F 81% 29.22 in 7.0 mi SSW 23.0 mph 32.2 mph N/A Snow Light Snow
6:37 PM 33.8 °F 21.6 °F 32.0 °F 93% 29.22 in 10.0 mi SSW 23.0 mph 33.4 mph N/A   Overcast
6:41 PM 33.8 °F 22.5 °F 32.0 °F 93% 29.22 in 10.0 mi South 19.6 mph 33.4 mph N/A   Overcast
6:43 PM 33.8 °F 22.2 °F 32.0 °F 93% 29.19 in 10.0 mi South 20.7 mph 33.4 mph N/A   Mostly Cloudy
6:55 PM 33.8 °F 21.6 °F 32.0 °F 93% 29.21 in 10.0 mi South 23.0 mph 33.4 mph N/A   Mostly Cloudy
7:17 PM 33.8 °F 22.8 °F 32.0 °F 93% 29.20 in 3.0 mi South 18.4 mph 27.6 mph N/A Rain Light Rain
7:22 PM 33.8 °F 22.5 °F 32.0 °F 93% 29.20 in 1.8 mi South 19.6 mph 27.6 mph N/A Snow Light Snow
7:55 PM 32.5 °F 21.2 °F 32.0 °F 98% 29.20 in 2.0 mi South 18.4 mph 26.5 mph 0.01 in Snow Light Snow
8:06 PM 32.0 °F 20.5 °F 32.0 °F 100% 29.19 in 5.0 mi South 18.4 mph 26.5 mph N/A Snow Light Snow
8:39 PM 32.0 °F 20.1 °F 32.0 °F 100% 29.18 in 6.0 mi South 19.6 mph 29.9 mph N/A   Overcast
8:55 PM 32.7 °F 22.1 °F 32.2 °F 98% 29.17 in 6.0 mi SSW 16.1 mph 26.5 mph 0.00 in   Overcast
9:09 PM 33.8 °F 22.8 °F 32.0 °F 93% 29.18 in 7.0 mi SSW 18.4 mph - N/A   Light Drizzle
9:15 PM 33.8 °F 22.8 °F 33.8 °F 100% 29.18 in 10.0 mi SW 18.4 mph - N/A   Overcast
9:38 PM 35.6 °F 24.5 °F 35.6 °F 100% 29.20 in 10.0 mi WSW 20.7 mph 28.8 mph N/A Rain Light Rain
9:44 PM 35.6 °F 24.2 °F 35.6 °F 100% 29.20 in 10.0 mi WSW 21.9 mph 31.1 mph N/A Rain Light Rain
9:55 PM 35.2 °F 24.4 °F 34.7 °F 98% 29.21 in 8.0 mi WSW 19.6 mph 32.2 mph 0.00 in Rain Light Rain
10:42 PM 33.8 °F 22.2 °F 32.0 °F 93% 29.27 in 2.5 mi WSW 20.7 mph 27.6 mph N/A Snow Light Snow
10:45 PM 33.8 °F 21.9 °F 32.0 °F 93% 29.27 in 2.0 mi WSW 21.9 mph 28.8 mph N/A Snow Light Snow
10:55 PM 32.0 °F 18.9 °F 32.0 °F 100% 29.28 in 1.2 mi West 24.2 mph 31.1 mph 0.00 in Snow Light Snow
11:02 PM 32.0 °F 18.9 °F 32.0 °F 100% 29.29 in 1.5 mi WSW 24.2 mph 29.9 mph N/A Snow Light Snow
11:03 PM 32.0 °F 19.5 °F 32.0 °F 100% 29.29 in 1.5 mi WSW 21.9 mph 29.9 mph N/A Snow Light Snow
11:14 PM 32.0 °F 19.2 °F 32.0 °F 100% 29.30 in 1.5 mi West 23.0 mph 32.2 mph N/A Snow Light Snow
11:16 PM 32.0 °F 18.1 °F 32.0 °F 100% 29.30 in 1.2 mi WSW 27.6 mph 33.4 mph N/A Snow Light Snow
11:24 PM 32.0 °F 18.4 °F 32.0 °F 100% 29.31 in 1.2 mi WSW 26.5 mph 35.7 mph N/A Snow Light Snow
11:28 PM 32.0 °F 19.2 °F 32.0 °F 100% 29.31 in 1.5 mi WSW 23.0 mph 35.7 mph N/A Snow Light Snow
11:39 PM 32.0 °F 19.2 °F 32.0 °F 100% 29.32 in 1.8 mi WSW 23.0 mph 31.1 mph N/A Snow Light Snow
11:40 PM 32.0 °F 18.9 °F 32.0 °F 100% 29.31 in 2.0 mi WSW 24.2 mph 32.2 mph N/A Snow Light Snow
11:53 PM 32.0 °F 18.1 °F 32.0 °F 100% 29.33 in 1.8 mi WSW 27.6 mph 36.8 mph N/A Snow Light Snow
11:55 PM 32.4 °F 18.9 °F 31.8 °F 98% 29.33 in 1.8 mi WSW 26.5 mph 36.8 mph 0.02 in Snow Light Snow